SCP
0 0 0 0 0 -0 -0 0 0 0 0 0 0 0 0 0 0 0 -0 0 -0 0 0 0 -0 -0 -0 -0 -0 0 0 -0 -0 -0 -0 -0 -0 0 0 0 0 0 -0 -0 -0 -0 -0 -0 -0
0 0 0 0 0 -0 -0 0 0 0 0 0 0 0 0 0 0 0 0 0 0 0 0 0 0 -0 -0 -0 -0 -0 0 0 -0 -0 -0 -0 -0 -0 0 0 0 0 -0 -0 -0 -0 -0 -0 -0
0 0 0 0 -0 -0 -0 0 -0 -0 0 0 0 0 0 0 0 -0 0 0 -0 0 0 0 0 -0 -0 -0 -0 -0 -0 0 -0 -0 -0 -0 -0 -0 -0 0 0 0 0 0 0 0 -0 -0 -0
0 0 0 0 0 0 -0 0 0 0 0 0 0 0 0 0 0 0 0 0 -0 0 0 0 0 -0 0 -0 -0 -0 -0 -0 -0 -0 -0 -0 -0 -0 -0 0 0 0 0 0 0 0 0 0 0
0 0 0 0 0 0 0 0 0 0 0 0 0 0 0 0 0 0 0 0 -0 0 0 0 0 -0 0 0 -0 -0 -0 -0 -0 -0 0 -0 -0 -0 -0 -0 0 0 0 0 0 0 0 0 0
0 0 0 0 0 0 0 0 0 0 0 0 0 0 0 0 0 0 0 0 0 0 0 0 0 0 0 0 0 0 -0 -0 -0 -0 -0 -0 0 -0 -0 -0 -0 -0 0 0 0 0 0 0 0
0 0 0 0 0 0 0 0 0 0 0 0 0 0 0 0 0 0 0 -0 0 0 0 0 0 0 0 0 0 0 0 0 0 -0 -0 0 0 0 0 0 -0 -0 -0 0 0 0 0 0 0
0 0 0 0 0 0 0 0 0 0 0 0 0 0 0 0 0 0 0 0 -0 0 0 0 0 0 0 0 0 0 0 0 0 0 0 0 0 0 0 0 0 -0 0 0 0 0 0 0 0
0 0 0 0 0 0 0 0 0 0 0 0 0 0 0 0 0 0 0 0 0 0 0 0 0 0 0 0 0 0 0 0 0 0 0 0 0 0 0 0 0 0 0 0 0 0 0 0 0
0 0 0 0 0 0 0 0 0 0 0 0 0 0 0 0 0 0 0 0 0 0 0 0 0 0 0 0 0 0 0 0 0 0 0 0 0 0 0 0 0 0 0 0 0 0 0 0 0
0 0 0 0 0 0 0 0 0 0 0 0 0 0 0 0 0 0 0 0 0 0 0 0 0 0 0 0 0 0 0 0 0 0 0 0 0 0 0 0 0 0 0 0 0 0 0 0 0
0 0 0 0 0 0 0 0 0 0 0 0 0 0 0 0 0 0 0 0 0 0 0 0 0 0 0 0 0 0 0 0 0 0 0 0 0 0 0 0 0 0 0 0 0 0 0 0 0
0 0 0 0 0 0 0 0 0 0 0 0 0 0 0 0 0 0 0 0 0 0 0 0 0 0 0 0 0 0 0 0 0 0 0 0 0 0 0 0 0 0 0 0 0 0 0 0 0
0 0 0 0 0 0 -0 0 0 0 0 0 0 0 0 0 0 0 0 0 0 0 0 0 0 0 0 0 0 0 0 0 0 0 0 0 0 0 0 0 0 0 0 0 0 0 0 0 0
0 0 0 0 0 0 0 0 0 0 0 0 0 0 0 0 0 0 0 0 0 0 0 0 0 0 0 0 0 0 0 0 0 0 0 0 0 0 0 0 0 0 0 0 0 0 0 0 0
0 0 0 0 0 0 0 0 0 0 0 0 0 0 0 0 0 0 0 0 0 0 0 0 0 0 0 0 0 0 0 0 0 0 0 0 0 0 0 0 0 0 0 0 0 0 0 0 0
0 0 0 0 0 0 0 -0 0 0 0 0 0 0 0 0 0 0 0 0 0 0 0 0 0 0 0 0 0 0 0 0 0 0 0 0 0 0 0 0 0 0 0 0 0 0 0 0 0
0 0 0 0 0 0 0 0 0 0 0 0 0 0 0 0 0 0 0 0 0 0 0 0 0 0 0 0 0 0 0 0 0 0 0 0 0 0 0 0 0 0 0 0 0 0 0 0 0
0 0 0 0 0 0 0 0 0 0 0 0 0 0 0 0 0 0 0 0 0 0 0 0 0 0 0 0 0 0 0 0 0 0 0 0 0 0 0 0 0 0 0 0 0 0 0 0 0
0 0 0 0 0 0 0 0 0 0 0 0 0 0 0 0 0 0 0 0 0 0 0 0 0 0 0 0 0 0 0 0 0 0 0 0 0 0 0 0 0 0 0 0 0 0 0 0 0
0 0 0 0 0 0 0 0 0 0 0 0 0 0 0 0 0 0 0 0 0 0 0 0 0 0 0 0 0 0 0 0 0 0 0 0 0 0 0 0 0 0 0 0 0 0 0 0 0
0 0 0 0 0 0 0 -0 0 0 0 0 0 0 0 0 0 0 0 0 0 0 0 0 0 0 0 0 0 0 0 0 0 0 0 0 0 0 0 0 0 0 0 0 0 0 0 0 0
0 0 0 0 0 0 0 0 -0 0 0 0 0 0 0 0 0 0 0 0 0 0 0 0 0 0 0 1 0 0 0 0 0 0 0 0 0 0 0 0 0 0 0 0 0 0 0 0 0
0 0 0 0 0 0 0 0 -0 0 0 0 0 0 0 0 0 0 0 0 0 0 0 0 0 0 0 0 0 0 0 0 0 0 0 0 0 0 0 0 0 0 0 0 0 0 0 0 0
0 0 0 0 0 0 0 0 0 0 0 0 0 0 0 0 0 0 0 0 0 0 0 0 0 0 0 0 0 0 0 0 0 0 0 0 0 0 0 0 0 0 0 0 0 0 0 0 0
0 0 0 0 0 0 0 0 0 0 0 0 0 0 0 0 0 0 0 0 0 0 0 0 0 0 0 0 0 0 0 0 0 0 0 0 0 0 0 0 0 0 0 0 0 0 0 0 0
0 0 0 0 0 0 0 0 0 0 0 0 0 0 0 0 0 0 0 0 0 0 0 0 0 0 0 0 0 0 0 0 0 0 0 0 0 0 0 0 0 0 0 0 0 0 0 0 0
0 0 0 0 0 0 0 0 0 0 0 0 0 0 0 0 0 0 0 0 0 0 0 0 0 0 0 0 0 0 0 0 0 0 0 0 0 0 0 0 0 0 0 0 0 0 0 0 0
0 0 0 0 0 0 0 0 0 0 0 0 0 0 0 0 0 0 0 0 0 0 0 0 0 0 0 0 0 0 0 0 0 0 0 0 0 0 0 0 0 0 0 0 0 0 0 0 0
0 0 0 0 0 0 0 0 0 0 0 0 0 0 0 0 0 0 0 0 0 0 0 0 0 0 0 0 0 0 0 0 0 0 0 0 0 0 0 0 0 0 0 0 0 0 0 0 0
Wind_Speed_500mb
20 16 6 9 7 9 20 20 2 13 5 17 18 12 15 31 8 11 44 25 39 39 49 43 34 29 32 35 33 30 31 35 32 32 25 25 21 17 12 10 13 18 21 20 18 20 24 24 20
15 4 6 12 9 14 13 17 9 10 23 21 18 9 5 10 17 35 41 41 43 40 49 43 35 32 33 36 34 32 34 36 34 27 22 19 17 14 11 10 14 19 23 21 21 23 25 21 19
22 8 11 8 10 16 11 11 16 30 26 17 11 7 12 12 20 35 32 50 44 38 49 43 37 37 36 36 34 33 37 34 33 26 22 16 13 11 12 15 19 25 26 22 20 24 22 20 21
15 12 15 8 22 26 10 5 17 19 14 20 20 12 19 20 17 20 50 55 45 37 46 45 40 41 36 35 37 39 37 32 29 26 19 14 10 12 12 15 21 25 24 20 20 21 20 19 18
14 14 9 14 25 28 9 24 15 13 19 13 11 16 17 19 19 23 51 52 41 40 41 46 43 41 38 33 36 37 35 29 21 20 18 13 11 16 15 14 13 20 22 20 18 18 16 15 15
13 12 10 16 22 25 3 21 3 11 20 25 13 8 15 21 26 41 47 47 44 45 45 46 46 42 39 33 35 36 31 22 17 15 13 15 17 19 14 12 9 10 12 14 14 13 12 10 9
20 9 16 21 23 17 9 16 6 13 10 16 2 4 22 30 33 44 44 42 38 39 43 50 50 43 39 35 34 34 31 23 19 16 11 20 20 25 22 19 12 7 11 13 12 11 9 7 5
9 3 11 15 20 11 13 7 6 16 9 23 8 2 18 40 41 44 42 31 22 34 34 52 52 45 41 38 36 35 32 26 22 22 15 16 18 22 23 23 19 14 14 13 12 11 9 7 4
14 6 9 16 14 16 18 11 7 8 3 11 11 16 36 46 45 49 44 40 39 38 34 49 50 47 43 41 41 38 34 29 27 25 26 21 13 17 19 20 28 21 13 10 13 15 13 8 6
13 8 14 15 11 10 29 31 28 7 5 10 14 26 37 35 51 55 51 48 39 40 36 30 41 46 41 41 43 40 37 34 30 26 24 23 17 8 12 14 17 23 23 19 14 14 8 6 7
8 20 18 18 10 20 16 23 30 14 8 16 31 33 32 41 47 53 49 55 44 43 44 36 31 41 45 41 39 39 36 34 33 31 29 25 19 19 20 21 19 19 19 15 12 12 11 11 12
26 32 32 39 3 8 11 23 25 21 21 25 19 37 36 41 46 50 52 46 45 53 47 46 44 43 38 44 38 41 34 36 35 36 33 28 30 30 30 31 20 18 20 16 18 16 15 16 19
27 32 32 36 21 10 15 21 14 41 35 13 7 35 31 34 37 28 30 36 46 45 64 53 51 47 43 43 38 33 31 30 32 30 33 32 34 33 26 22 20 16 16 17 18 21 21 22 23
20 54 35 43 33 17 14 21 5 8 16 26 14 13 25 29 37 35 38 41 39 44 40 61 53 54 48 45 41 39 37 31 31 29 30 33 31 29 25 25 24 23 20 19 19 19 20 22 23
18 12 16 24 30 12 4 16 14 39 37 29 16 18 22 30 35 43 44 45 46 43 46 46 64 52 56 53 46 44 43 37 36 35 35 32 33 28 27 27 26 25 24 23 23 23 26 28 26
7 11 11 11 19 25 21 19 6 23 42 40 37 31 33 28 35 37 41 42 45 44 50 51 44 67 55 53 52 45 42 41 36 37 38 36 36 35 33 30 28 27 26 25 25 26 22 21 23
11 8 23 21 27 11 18 4 23 48 24 35 37 35 34 31 34 33 38 41 42 44 42 47 50 47 66 56 52 51 48 44 42 39 39 39 38 38 36 35 33 31 30 30 28 25 26 27 27
12 17 19 17 11 19 19 16 16 11 10 23 24 25 27 33 30 30 33 37 38 44 46 46 53 47 51 64 53 49 47 46 46 43 42 38 38 40 41 37 33 30 30 31 28 28 25 26 26
3 9 13 7 12 5 10 15 20 36 24 18 16 20 33 34 26 25 26 39 41 39 45 50 55 50 49 57 61 53 50 48 45 44 43 42 40 38 39 36 33 31 32 28 27 26 23 22 19
12 10 8 10 8 3 10 17 20 23 26 37 34 33 28 25 27 30 31 35 39 44 44 48 52 49 46 51 55 58 53 51 47 43 43 40 40 38 35 36 34 36 34 31 27 25 21 20 18
16 15 9 2 4 6 12 15 20 22 37 46 45 45 40 40 30 27 22 33 43 39 42 49 50 48 42 44 48 55 53 50 46 43 46 48 46 43 43 40 39 38 37 34 30 28 29 31 26
17 14 14 8 3 4 4 10 10 37 32 27 40 38 41 33 29 19 20 18 23 37 42 43 48 49 46 40 44 49 57 57 59 51 50 49 46 46 45 44 41 40 38 36 33 32 34 33 37
11 14 12 12 9 5 11 6 11 21 4 15 25 31 11 11 19 21 29 36 33 35 48 55 47 48 50 53 54 53 53 55 41 46 45 37 43 43 45 46 43 41 39 39 38 38 34 37 34
4 7 3 4 5 11 16 16 11 15 16 12 21 27 15 6 5 14 21 31 36 40 40 45 53 52 49 50 57 60 56 52 48 39 38 39 43 43 46 48 45 45 45 45 43 41 39 38 36
13 13 4 2 4 10 10 20 19 3 9 14 20 30 14 4 5 8 12 18 22 26 32 41 48 56 60 56 54 57 51 52 54 49 51 52 45 46 45 47 47 46 46 46 46 45 39 35 35
24 24 7 12 7 7 11 12 9 12 28 33 30 23 11 5 0 3 5 8 11 15 22 30 39 48 54 61 58 57 61 58 54 57 56 55 51 51 50 51 50 47 46 42 44 44 39 39 37
17 21 15 8 3 3 9 8 4 15 16 21 28 22 15 8 4 3 3 4 6 11 15 22 32 42 46 47 50 51 48 51 51 45 44 51 47 45 40 38 41 46 50 51 49 38 36 37 37
14 12 9 5 6 8 10 10 9 6 13 14 17 21 15 11 6 7 8 8 10 11 13 16 19 25 31 32 33 38 39 32 33 36 38 34 36 33 32 28 30 27 33 31 28 29 27 27 30
17 12 8 6 10 7 1 6 9 11 15 19 22 22 22 18 13 11 14 16 17 17 18 19 20 21 26 27 27 28 28 29 27 26 25 24 26 25 26 27 24 21 20 20 20 20 21 23 24
10 15 16 7 8 8 10 15 8 15 19 34 26 26 23 19 18 17 17 19 21 24 26 26 27 26 28 27 27 27 26 25 25 24 23 23 20 18 16 16 15 14 14 15 16 18 18 18 18
Wind_Direction_500mb
10 15 63 212 245 225 249 254 299 71 36 78 98 49 56 37 29 116 140 159 180 173 166 163 161 161 158 158 158 156 150 147 137 145 141 141 141 145 146 145 153 159 114 108 103 116 136 144 140
1 336 214 257 244 238 280 200 134 149 87 104 94 42 312 99 75 129 155 159 175 169 162 162 160 158 156 158 158 154 151 149 145 151 154 154 154 155 160 154 147 148 123 118 115 114 126 127 127
346 302 269 216 235 251 253 274 172 93 118 126 124 244 5 80 108 137 152 159 172 168 163 162 159 157 154 153 153 148 144 148 154 160 167 169 170 171 163 152 148 127 126 122 120 117 118 121 118
322 244 252 256 255 230 231 8 31 99 136 161 150 131 98 77 118 177 153 151 173 167 165 164 162 161 154 153 152 149 149 154 164 177 185 182 175 154 155 155 138 131 131 126 127 122 117 116 114
284 264 253 231 254 276 85 85 5 139 151 187 214 138 99 122 146 156 147 154 175 172 163 166 165 163 162 157 155 156 158 165 174 188 184 174 164 152 133 137 148 141 140 138 129 126 121 118 115
285 233 253 241 247 251 88 82 9 281 178 163 186 179 103 143 139 144 151 155 180 165 168 169 167 167 167 164 163 162 164 167 171 146 158 160 146 141 133 139 131 148 157 150 137 141 139 137 131
240 286 250 262 263 252 75 71 265 257 201 129 168 208 133 142 151 147 150 176 175 176 178 173 169 171 171 172 171 168 169 166 153 136 145 156 164 154 164 155 165 190 160 165 160 166 168 168 161
272 287 266 256 274 294 58 40 23 327 326 122 160 11 157 155 154 148 153 173 175 172 188 174 172 173 175 179 179 178 178 173 163 150 176 187 183 185 181 176 170 193 175 179 182 189 194 199 203
279 247 228 238 259 271 74 26 86 309 126 87 114 71 145 156 153 149 161 161 173 177 191 177 177 176 180 183 184 186 187 186 184 180 183 203 204 209 184 186 191 195 209 240 217 210 209 219 242
224 214 242 256 282 10 10 356 342 335 235 131 106 112 157 163 158 160 166 171 182 175 184 192 186 174 183 190 189 190 193 195 199 205 206 218 246 256 202 215 209 215 236 253 243 236 237 251 269
239 247 265 261 17 24 346 318 325 339 304 186 174 158 170 159 164 169 179 182 185 177 178 192 190 181 187 187 190 193 201 202 206 215 216 221 223 207 221 233 240 243 240 242 252 266 262 258 255
272 269 265 271 312 46 323 327 327 296 282 340 4 190 179 169 184 187 186 177 187 180 184 190 182 190 200 192 193 200 205 208 210 215 221 213 197 221 227 240 243 238 236 238 253 263 268 271 268
238 267 269 265 259 225 281 279 283 296 294 324 33 162 180 181 187 197 195 185 184 209 188 187 198 194 197 201 194 196 210 215 211 214 214 212 211 224 230 220 234 246 237 244 234 246 258 264 265
196 235 253 269 269 250 246 264 269 259 314 275 263 192 194 200 192 192 194 194 210 206 213 199 191 200 203 202 201 193 203 215 206 212 219 215 216 220 222 221 226 232 239 242 250 252 268 274 276
273 297 260 252 258 213 338 268 211 251 266 270 272 225 219 212 207 204 201 201 207 203 210 223 203 195 205 205 206 204 208 209 205 208 214 218 215 220 224 223 228 231 235 239 245 249 248 257 264
235 228 248 216 220 238 204 262 263 264 237 244 251 253 222 217 217 214 212 209 205 209 211 224 221 207 203 210 208 207 214 213 216 215 219 220 217 212 216 217 222 220 220 231 242 246 250 253 258
236 236 220 251 239 189 179 218 240 266 261 238 246 244 254 231 218 215 216 216 207 210 213 214 232 221 210 209 210 210 214 216 213 213 223 225 228 224 225 227 224 223 228 230 235 237 244 255 263
187 211 250 263 237 205 201 219 270 266 239 244 254 255 255 252 226 219 220 214 213 213 206 214 229 232 216 213 211 215 221 225 225 223 224 227 228 227 224 227 232 233 232 233 235 239 245 258 272
336 323 277 262 46 46 261 259 230 241 234 238 238 251 250 247 240 225 230 205 211 212 205 211 226 236 218 212 212 212 218 222 225 226 226 225 229 229 224 226 221 223 229 238 242 242 253 261 283
233 228 260 319 293 336 282 267 248 250 252 236 237 236 242 253 243 235 231 212 198 210 209 208 229 239 229 218 217 215 219 224 228 230 225 234 233 232 230 230 230 224 231 232 233 243 259 267 255
227 231 228 153 335 265 291 267 254 259 239 244 243 244 248 248 259 244 241 246 224 207 216 212 219 236 242 228 218 215 216 224 222 224 226 222 224 229 233 234 235 230 235 238 238 250 265 276 270
240 219 254 244 269 226 169 285 247 232 233 220 231 234 237 250 257 250 205 179 220 214 207 217 220 220 232 235 233 229 218 221 227 223 223 227 230 231 231 234 238 237 236 235 240 248 258 266 269
239 286 237 228 252 296 241 278 240 266 172 170 204 217 177 159 207 187 199 208 199 211 213 206 210 217 225 221 227 230 224 221 225 229 239 238 231 232 229 229 234 235 237 240 240 239 253 259 269
138 242 189 221 221 262 212 214 221 244 202 173 102 92 90 96 212 225 222 224 226 222 223 218 212 210 212 220 221 231 233 226 219 227 230 228 223 219 220 224 226 228 232 235 241 245 246 254 257
163 168 135 203 209 226 186 211 238 310 76 106 121 114 117 168 243 249 242 229 228 228 224 221 214 213 211 218 218 219 223 225 224 221 222 216 224 223 215 219 226 231 234 238 246 245 239 240 250
192 191 169 187 200 208 187 236 221 68 85 101 102 109 114 101 275 246 239 230 213 213 210 211 209 209 212 216 220 221 223 224 221 223 219 221 214 225 219 223 228 232 237 242 246 247 246 250 254
189 224 252 4 152 54 220 273 177 137 123 117 116 111 102 111 127 132 155 184 181 189 199 206 206 206 209 209 211 218 222 225 226 221 212 219 218 220 226 234 245 245 247 253 255 244 246 249 256
188 153 214 203 212 231 237 235 208 216 171 143 122 116 120 114 110 108 113 122 134 147 162 178 190 200 202 203 206 213 217 210 204 202 206 204 215 217 217 225 230 234 243 244 241 242 244 246 252
218 191 259 271 210 204 244 230 340 246 156 147 118 133 139 131 124 113 109 110 113 121 130 141 155 166 174 172 180 192 199 207 210 208 212 211 217 222 227 227 224 224 227 233 242 249 252 253 255
333 259 181 203 243 237 290 268 52 47 70 110 127 132 132 137 136 127 119 115 113 115 116 123 124 135 140 152 164 170 176 179 192 190 187 186 185 186 192 201 209 219 227 233 239 244 249 252 257
Wind_Speed_850mb
20 16 6 9 7 9 20 20 2 13 5 17 18 12 15 31 8 11 44 25 39 39 49 43 34 29 32 35 33 30 31 35 32 32 25 25 21 17 12 10 13 18 21 20 18 20 24 24 20
15 4 6 12 9 14 13 17 9 10 23 21 18 9 5 10 17 35 41 41 43 40 49 43 35 32 33 36 34 32 34 36 34 27 22 19 17 14 11 10 14 19 23 21 21 23 25 21 19
22 8 11 8 10 16 11 11 16 30 26 17 11 7 12 12 20 35 32 50 44 38 49 43 37 37 36 36 34 33 37 34 33 26 22 16 13 11 12 15 19 25 26 22 20 24 22 20 21
15 12 15 8 22 26 10 5 17 19 14 20 20 12 19 20 17 20 50 55 45 37 46 45 40 41 36 35 37 39 37 32 29 26 19 14 10 12 12 15 21 25 24 20 20 21 20 19 18
14 14 9 14 25 28 9 24 15 13 19 13 11 16 17 19 19 23 51 52 41 40 41 46 43 41 38 33 36 37 35 29 21 20 18 13 11 16 15 14 13 20 22 20 18 18 16 15 15
13 12 10 16 22 25 3 21 3 11 20 25 13 8 15 21 26 41 47 47 44 45 45 46 46 42 39 33 35 36 31 22 17 15 13 15 17 19 14 12 9 10 12 14 14 13 12 10 9
20 9 16 21 23 17 9 16 6 13 10 16 2 4 22 30 33 44 44 42 38 39 43 50 50 43 39 35 34 34 31 23 19 16 11 20 20 25 22 19 12 7 11 13 12 11 9 7 5
9 3 11 15 20 11 13 7 6 16 9 23 8 2 18 40 41 44 42 31 22 34 34 52 52 45 41 38 36 35 32 26 22 22 15 16 18 22 23 23 19 14 14 13 12 11 9 7 4
14 6 9 16 14 16 18 11 7 8 3 11 11 16 36 46 45 49 44 40 39 38 34 49 50 47 43 41 41 38 34 29 27 25 26 21 13 17 19 20 28 21 13 10 13 15 13 8 6
13 8 14 15 11 10 29 31 28 7 5 10 14 26 37 35 51 55 51 48 39 40 36 30 41 46 41 41 43 40 37 34 30 26 24 23 17 8 12 14 17 23 23 19 14 14 8 6 7
8 20 18 18 10 20 16 23 30 14 8 16 31 33 32 41 47 53 49 55 44 43 44 36 31 41 45 41 39 39 36 34 33 31 29 25 19 19 20 21 19 19 19 15 12 12 11 11 12
26 32 32 39 3 8 11 23 25 21 21 25 19 37 36 41 46 50 52 46 45 53 47 46 44 43 38 44 38 41 34 36 35 36 33 28 30 30 30 31 20 18 20 16 18 16 15 16 19
27 32 32 36 21 10 15 21 14 41 35 13 7 35 31 34 37 28 30 36 46 45 64 53 51 47 43 43 38 33 31 30 32 30 33 32 34 33 26 22 20 16 16 17 18 21 21 22 23
20 54 35 43 33 17 14 21 5 8 16 26 14 13 25 29 37 35 38 41 39 44 40 61 53 54 48 45 41 39 37 31 31 29 30 33 31 29 25 25 24 23 20 19 19 19 20 22 23
18 12 16 24 30 12 4 16 14 39 37 29 16 18 22 30 35 43 44 45 46 43 46 46 64 52 56 53 46 44 43 37 36 35 35 32 33 28 27 27 26 25 24 23 23 23 26 28 26
7 11 11 11 19 25 21 19 6 23 42 40 37 31 33 28 35 37 41 42 45 44 50 51 44 67 55 53 52 45 42 41 36 37 38 36 36 35 33 30 28 27 26 25 25 26 22 21 23
11 8 23 21 27 11 18 4 23 48 24 35 37 35 34 31 34 33 38 41 42 44 42 47 50 47 66 56 52 51 48 44 42 39 39 39 38 38 36 35 33 31 30 30 28 25 26 27 27
12 17 19 17 11 19 19 16 16 11 10 23 24 25 27 33 30 30 33 37 38 44 46 46 53 47 51 64 53 49 47 46 46 43 42 38 38 40 41 37 33 30 30 31 28 28 25 26 26
3 9 13 7 12 5 10 15 20 36 24 18 16 20 33 34 26 25 26 39 41 39 45 50 55 50 49 57 61 53 50 48 45 44 43 42 40 38 39 36 33 31 32 28 27 26 23 22 19
12 10 8 10 8 3 10 17 20 23 26 37 34 33 28 25 27 30 31 35 39 44 44 48 52 49 46 51 55 58 53 51 47 43 43 40 40 38 35 36 34 36 34 31 27 25 21 20 18
16 15 9 2 4 6 12 15 20 22 37 46 45 45 40 40 30 27 22 33 43 39 42 49 50 48 42 44 48 55 53 50 46 43 46 48 46 43 43 40 39 38 37 34 30 28 29 31 26
17 14 14 8 3 4 4 10 10 37 32 27 40 38 41 33 29 19 20 18 23 37 42 43 48 49 46 40 44 49 57 57 59 51 50 49 46 46 45 44 41 40 38 36 33 32 34 33 37
11 14 12 12 9 5 11 6 11 21 4 15 25 31 11 11 19 21 29 36 33 35 48 55 47 48 50 53 54 53 53 55 41 46 45 37 43 43 45 46 43 41 39 39 38 38 34 37 34
4 7 3 4 5 11 16 16 11 15 16 12 21 27 15 6 5 14 21 31 36 40 40 45 53 52 49 50 57 60 56 52 48 39 38 39 43 43 46 48 45 45 45 45 43 41 39 38 36
13 13 4 2 4 10 10 20 19 3 9 14 20 30 14 4 5 8 12 18 22 26 32 41 48 56 60 56 54 57 51 52 54 49 51 52 45 46 45 47 47 46 46 46 46 45 39 35 35
24 24 7 12 7 7 11 12 9 12 28 33 30 23 11 5 0 3 5 8 11 15 22 30 39 48 54 61 58 57 61 58 54 57 56 55 51 51 50 51 50 47 46 42 44 44 39 39 37
17 21 15 8 3 3 9 8 4 15 16 21 28 22 15 8 4 3 3 4 6 11 15 22 32 42 46 47 50 51 48 51 51 45 44 51 47 45 40 38 41 46 50 51 49 38 36 37 37
14 12 9 5 6 8 10 10 9 6 13 14 17 21 15 11 6 7 8 8 10 11 13 16 19 25 31 32 33 38 39 32 33 36 38 34 36 33 32 28 30 27 33 31 28 29 27 27 30
17 12 8 6 10 7 1 6 9 11 15 19 22 22 22 18 13 11 14 16 17 17 18 19 20 21 26 27 27 28 28 29 27 26 25 24 26 25 26 27 24 21 20 20 20 20 21 23 24
10 15 16 7 8 8 10 15 8 15 19 34 26 26 23 19 18 17 17 19 21 24 26 26 27 26 28 27 27 27 26 25 25 24 23 23 20 18 16 16 15 14 14 15 16 18 18 18 18
Wind_Direction_850mb
10 15 63 212 245 225 249 254 299 71 36 78 98 49 56 37 29 116 140 159 180 173 166 163 161 161 158 158 158 156 150 147 137 145 141 141 141 145 146 145 153 159 114 108 103 116 136 144 140
1 336 214 257 244 238 280 200 134 149 87 104 94 42 312 99 75 129 155 159 175 169 162 162 160 158 156 158 158 154 151 149 145 151 154 154 154 155 160 154 147 148 123 118 115 114 126 127 127
346 302 269 216 235 251 253 274 172 93 118 126 124 244 5 80 108 137 152 159 172 168 163 162 159 157 154 153 153 148 144 148 154 160 167 169 170 171 163 152 148 127 126 122 120 117 118 121 118
322 244 252 256 255 230 231 8 31 99 136 161 150 131 98 77 118 177 153 151 173 167 165 164 162 161 154 153 152 149 149 154 164 177 185 182 175 154 155 155 138 131 131 126 127 122 117 116 114
284 264 253 231 254 276 85 85 5 139 151 187 214 138 99 122 146 156 147 154 175 172 163 166 165 163 162 157 155 156 158 165 174 188 184 174 164 152 133 137 148 141 140 138 129 126 121 118 115
285 233 253 241 247 251 88 82 9 281 178 163 186 179 103 143 139 144 151 155 180 165 168 169 167 167 167 164 163 162 164 167 171 146 158 160 146 141 133 139 131 148 157 150 137 141 139 137 131
240 286 250 262 263 252 75 71 265 257 201 129 168 208 133 142 151 147 150 176 175 176 178 173 169 171 171 172 171 168 169 166 153 136 145 156 164 154 164 155 165 190 160 165 160 166 168 168 161
272 287 266 256 274 294 58 40 23 327 326 122 160 11 157 155 154 148 153 173 175 172 188 174 172 173 175 179 179 178 178 173 163 150 176 187 183 185 181 176 170 193 175 179 182 189 194 199 203
279 247 228 238 259 271 74 26 86 309 126 87 114 71 145 156 153 149 161 161 173 177 191 177 177 176 180 183 184 186 187 186 184 180 183 203 204 209 184 186 191 195 209 240 217 210 209 219 242
224 214 242 256 282 10 10 356 342 335 235 131 106 112 157 163 158 160 166 171 182 175 184 192 186 174 183 190 189 190 193 195 199 205 206 218 246 256 202 215 209 215 236 253 243 236 237 251 269
239 247 265 261 17 24 346 318 325 339 304 186 174 158 170 159 164 169 179 182 185 177 178 192 190 181 187 187 190 193 201 202 206 215 216 221 223 207 221 233 240 243 240 242 252 266 262 258 255
272 269 265 271 312 46 323 327 327 296 282 340 4 190 179 169 184 187 186 177 187 180 184 190 182 190 200 192 193 200 205 208 210 215 221 213 197 221 227 240 243 238 236 238 253 263 268 271 268
238 267 269 265 259 225 281 279 283 296 294 324 33 162 180 181 187 197 195 185 184 209 188 187 198 194 197 201 194 196 210 215 211 214 214 212 211 224 230 220 234 246 237 244 234 246 258 264 265
196 235 253 269 269 250 246 264 269 259 314 275 263 192 194 200 192 192 194 194 210 206 213 199 191 200 203 202 201 193 203 215 206 212 219 215 216 220 222 221 226 232 239 242 250 252 268 274 276
273 297 260 252 258 213 338 268 211 251 266 270 272 225 219 212 207 204 201 201 207 203 210 223 203 195 205 205 206 204 208 209 205 208 214 218 215 220 224 223 228 231 235 239 245 249 248 257 264
235 228 248 216 220 238 204 262 263 264 237 244 251 253 222 217 217 214 212 209 205 209 211 224 221 207 203 210 208 207 214 213 216 215 219 220 217 212 216 217 222 220 220 231 242 246 250 253 258
236 236 220 251 239 189 179 218 240 266 261 238 246 244 254 231 218 215 216 216 207 210 213 214 232 221 210 209 210 210 214 216 213 213 223 225 228 224 225 227 224 223 228 230 235 237 244 255 263
187 211 250 263 237 205 201 219 270 266 239 244 254 255 255 252 226 219 220 214 213 213 206 214 229 232 216 213 211 215 221 225 225 223 224 227 228 227 224 227 232 233 232 233 235 239 245 258 272
336 323 277 262 46 46 261 259 230 241 234 238 238 251 250 247 240 225 230 205 211 212 205 211 226 236 218 212 212 212 218 222 225 226 226 225 229 229 224 226 221 223 229 238 242 242 253 261 283
233 228 260 319 293 336 282 267 248 250 252 236 237 236 242 253 243 235 231 212 198 210 209 208 229 239 229 218 217 215 219 224 228 230 225 234 233 232 230 230 230 224 231 232 233 243 259 267 255
227 231 228 153 335 265 291 267 254 259 239 244 243 244 248 248 259 244 241 246 224 207 216 212 219 236 242 228 218 215 216 224 222 224 226 222 224 229 233 234 235 230 235 238 238 250 265 276 270
240 219 254 244 269 226 169 285 247 232 233 220 231 234 237 250 257 250 205 179 220 214 207 217 220 220 232 235 233 229 218 221 227 223 223 227 230 231 231 234 238 237 236 235 240 248 258 266 269
239 286 237 228 252 296 241 278 240 266 172 170 204 217 177 159 207 187 199 208 199 211 213 206 210 217 225 221 227 230 224 221 225 229 239 238 231 232 229 229 234 235 237 240 240 239 253 259 269
138 242 189 221 221 262 212 214 221 244 202 173 102 92 90 96 212 225 222 224 226 222 223 218 212 210 212 220 221 231 233 226 219 227 230 228 223 219 220 224 226 228 232 235 241 245 246 254 257
163 168 135 203 209 226 186 211 238 310 76 106 121 114 117 168 243 249 242 229 228 228 224 221 214 213 211 218 218 219 223 225 224 221 222 216 224 223 215 219 226 231 234 238 246 245 239 240 250
192 191 169 187 200 208 187 236 221 68 85 101 102 109 114 101 275 246 239 230 213 213 210 211 209 209 212 216 220 221 223 224 221 223 219 221 214 225 219 223 228 232 237 242 246 247 246 250 254
189 224 252 4 152 54 220 273 177 137 123 117 116 111 102 111 127 132 155 184 181 189 199 206 206 206 209 209 211 218 222 225 226 221 212 219 218 220 226 234 245 245 247 253 255 244 246 249 256
188 153 214 203 212 231 237 235 208 216 171 143 122 116 120 114 110 108 113 122 134 147 162 178 190 200 202 203 206 213 217 210 204 202 206 204 215 217 217 225 230 234 243 244 241 242 244 246 252
218 191 259 271 210 204 244 230 340 246 156 147 118 133 139 131 124 113 109 110 113 121 130 141 155 166 174 172 180 192 199 207 210 208 212 211 217 222 227 227 224 224 227 233 242 249 252 253 255
333 259 181 203 243 237 290 268 52 47 70 110 127 132 132 137 136 127 119 115 113 115 116 123 124 135 140 152 164 170 176 179 192 190 187 186 185 186 192 201 209 219 227 233 239 244 249 252 257